DLH605 EDDF-LLBG

Flight info

Callsign DLH605
Flight time 1h 35m
Altitude 39000
Route CINDY8S/18 CINDY Z74 LAMPU DCT NOMBO Y161 MAH DCT VAVOR DCT RADIZ DCT MAVAR DCT BITLA DCT AGISA DCT AKINA DCT VANZA DCT PIKOG L609 ZUKKO
Aircraft A359/H-SDE2E3GHIJ3J4J5LM1ORWXY/LB1D1

Departure

Time 2026-05-07 17:51
Airport Frankfurt Main Airport (EDDF)

Arrival

Time 2026-05-07 19:27
Airport Ben Gurion International Airport (LLBG)
Time Latitude Longitude Altitude Speed Heading
2026-05-07 17:20 50.05123 8.58973 374 ft 0 kts 339°
2026-05-07 17:34 50.05116 8.58977 370 ft 2 kts 338°
2026-05-07 17:35 50.05101 8.58987 371 ft 2 kts 336°
2026-05-07 17:35 50.05086 8.58998 372 ft 2 kts 333°
2026-05-07 17:35 50.05071 8.59011 368 ft 2 kts 327°
2026-05-07 17:35 50.05058 8.59026 368 ft 2 kts 316°
2026-05-07 17:36 50.05048 8.59046 371 ft 2 kts 291°
2026-05-07 17:36 50.05046 8.59071 371 ft 2 kts 256°
2026-05-07 17:36 50.05048 8.59083 368 ft 0 kts 251°
2026-05-07 17:40 50.05048 8.59082 368 ft 1 kts 251°
2026-05-07 17:41 50.05022 8.58964 372 ft 13 kts 251°
2026-05-07 17:41 50.04995 8.58847 370 ft 11 kts 250°
2026-05-07 17:41 50.04965 8.58721 369 ft 13 kts 250°
2026-05-07 17:41 50.04931 8.58578 371 ft 15 kts 250°
2026-05-07 17:42 50.04896 8.58427 370 ft 15 kts 250°
2026-05-07 17:42 50.04858 8.58269 372 ft 16 kts 249°
2026-05-07 17:42 50.04816 8.58099 371 ft 17 kts 249°
2026-05-07 17:42 50.04744 8.57944 371 ft 18 kts 224°
2026-05-07 17:43 50.04678 8.57773 369 ft 19 kts 250°
2026-05-07 17:43 50.04630 8.57573 370 ft 20 kts 250°
2026-05-07 17:43 50.04581 8.57363 370 ft 21 kts 250°
2026-05-07 17:43 50.04528 8.57141 371 ft 22 kts 249°
2026-05-07 17:44 50.04472 8.56911 371 ft 23 kts 249°
2026-05-07 17:44 50.04417 8.56672 368 ft 24 kts 250°
2026-05-07 17:44 50.04359 8.56425 371 ft 24 kts 249°
2026-05-07 17:44 50.04298 8.56175 372 ft 24 kts 250°
2026-05-07 17:45 50.04251 8.55979 371 ft 16 kts 249°
2026-05-07 17:45 50.04216 8.55834 368 ft 14 kts 250°
2026-05-07 17:45 50.04181 8.55686 372 ft 15 kts 250°
2026-05-07 17:45 50.04167 8.55626 373 ft 0 kts 250°
2026-05-07 17:46 50.04145 8.55531 372 ft 17 kts 250°
2026-05-07 17:46 50.04107 8.55371 372 ft 16 kts 249°
2026-05-07 17:46 50.04067 8.55207 370 ft 16 kts 249°
2026-05-07 17:47 50.04027 8.55036 370 ft 18 kts 250°
2026-05-07 17:47 50.03995 8.54920 373 ft 10 kts 245°
2026-05-07 17:47 50.03973 8.54833 373 ft 9 kts 249°
2026-05-07 17:47 50.03950 8.54733 369 ft 11 kts 251°
2026-05-07 17:48 50.03922 8.54612 373 ft 13 kts 250°
2026-05-07 17:48 50.03890 8.54475 372 ft 14 kts 249°
2026-05-07 17:48 50.03843 8.54334 369 ft 15 kts 237°
2026-05-07 17:48 50.03792 8.54182 371 ft 17 kts 247°
2026-05-07 17:49 50.03748 8.54010 372 ft 18 kts 250°
2026-05-07 17:49 50.03706 8.53826 370 ft 19 kts 250°
2026-05-07 17:49 50.03659 8.53628 369 ft 20 kts 248°
2026-05-07 17:49 50.03607 8.53420 371 ft 21 kts 249°
2026-05-07 17:50 50.03557 8.53209 368 ft 22 kts 249°
2026-05-07 17:50 50.03503 8.52985 372 ft 22 kts 249°
2026-05-07 17:50 50.03445 8.52761 369 ft 22 kts 248°
2026-05-07 17:50 50.03347 8.52600 372 ft 21 kts 193°
2026-05-07 17:51 50.03309 8.52595 371 ft 7 kts 181°
2026-05-07 17:51 50.02996 8.52596 368 ft 87 kts 180°
2026-05-07 17:51 50.02129 8.52603 369 ft 161 kts 179°
2026-05-07 17:51 50.00971 8.52619 1175 ft 166 kts 179°
2026-05-07 17:52 49.99739 8.52634 1837 ft 192 kts 179°
2026-05-07 17:52 49.98324 8.52644 2571 ft 210 kts 179°
2026-05-07 17:52 49.96911 8.53053 3343 ft 205 kts 154°
2026-05-07 17:52 49.95890 8.54552 3884 ft 207 kts 121°
2026-05-07 17:53 49.95158 8.56571 4159 ft 224 kts 117°
2026-05-07 17:53 49.94404 8.58778 4515 ft 238 kts 117°
2026-05-07 17:53 49.93868 8.60325 4687 ft 252 kts 118°
2026-05-07 17:53 49.92703 8.63621 5321 ft 266 kts 118°
2026-05-07 17:54 49.92107 8.65291 5723 ft 269 kts 119°
2026-05-07 17:54 49.91189 8.67853 6370 ft 273 kts 119°
2026-05-07 17:54 49.90256 8.70449 6984 ft 278 kts 119°
2026-05-07 17:54 49.89309 8.73076 7617 ft 281 kts 119°
2026-05-07 17:55 49.88354 8.75725 8261 ft 284 kts 120°
2026-05-07 17:55 49.87267 8.78293 8898 ft 286 kts 129°
2026-05-07 17:55 49.86845 8.79112 9119 ft 287 kts 130°
2026-05-07 17:57 49.76345 8.96549 11601 ft 364 kts 134°
2026-05-07 17:57 49.75163 8.98480 11827 ft 369 kts 134°
2026-05-07 17:57 49.72814 9.02326 12446 ft 375 kts 134°
2026-05-07 17:57 49.71004 9.05289 12915 ft 379 kts 134°
2026-05-07 17:58 49.69187 9.08259 13411 ft 382 kts 134°
2026-05-07 17:58 49.67357 9.11247 13901 ft 385 kts 134°
2026-05-07 17:58 49.65509 9.14258 14329 ft 388 kts 134°
2026-05-07 17:58 49.63650 9.17284 14761 ft 390 kts 134°
2026-05-07 17:59 49.61773 9.20335 15209 ft 393 kts 134°
2026-05-07 17:59 49.59882 9.23406 15650 ft 396 kts 134°
2026-05-07 17:59 49.57976 9.26499 16113 ft 399 kts 134°
2026-05-07 17:59 49.56059 9.29603 16563 ft 401 kts 134°
2026-05-07 18:00 49.54132 9.32721 16995 ft 404 kts 135°
2026-05-07 18:00 49.52179 9.35875 17435 ft 407 kts 135°
2026-05-07 18:00 49.50219 9.39038 17846 ft 410 kts 135°
2026-05-07 18:00 49.48242 9.42223 18278 ft 413 kts 135°
2026-05-07 18:01 49.46249 9.45429 18645 ft 416 kts 135°
2026-05-07 18:01 49.44253 9.48639 19025 ft 418 kts 135°
2026-05-07 18:01 49.42229 9.51889 19393 ft 420 kts 135°
2026-05-07 18:01 49.40208 9.55128 19770 ft 423 kts 135°
2026-05-07 18:02 49.36108 9.61690 20504 ft 427 kts 135°
2026-05-07 18:02 49.34045 9.64986 20877 ft 429 kts 135°
2026-05-07 18:02 49.32669 9.67182 21118 ft 431 kts 135°
2026-05-07 18:03 49.30591 9.70493 21474 ft 433 kts 135°
2026-05-07 18:03 49.28495 9.73831 21809 ft 435 kts 135°
2026-05-07 18:03 49.26389 9.77179 22172 ft 438 kts 135°
2026-05-07 18:03 49.24267 9.80548 22523 ft 440 kts 135°
2026-05-07 18:04 49.22137 9.83925 22848 ft 443 kts 136°
2026-05-07 18:04 49.19992 9.87321 23189 ft 445 kts 136°
2026-05-07 18:04 49.17832 9.90736 23528 ft 447 kts 136°
2026-05-07 18:04 49.15698 9.94212 23811 ft 450 kts 133°
2026-05-07 18:05 49.13626 9.97805 24097 ft 452 kts 133°
2026-05-07 18:05 49.11556 10.01438 24400 ft 454 kts 133°
2026-05-07 18:05 49.09486 10.05097 24713 ft 456 kts 132°
2026-05-07 18:05 49.07422 10.08761 25029 ft 457 kts 132°
2026-05-07 18:06 49.05342 10.12453 25345 ft 459 kts 132°
2026-05-07 18:06 49.03261 10.16145 25651 ft 461 kts 132°
2026-05-07 18:06 49.01163 10.19859 25984 ft 463 kts 132°
2026-05-07 18:06 48.99067 10.23562 26316 ft 464 kts 132°
2026-05-07 18:07 48.96944 10.27306 26644 ft 466 kts 132°
2026-05-07 18:07 48.94817 10.31050 26983 ft 468 kts 132°
2026-05-07 18:07 48.92682 10.34802 27321 ft 471 kts 132°
2026-05-07 18:07 48.90532 10.38574 27681 ft 473 kts 132°
2026-05-07 18:08 48.88375 10.42355 28029 ft 475 kts 132°
2026-05-07 18:08 48.86206 10.46149 28398 ft 477 kts 132°
2026-05-07 18:08 48.84022 10.49965 28763 ft 479 kts 132°
2026-05-07 18:08 48.81829 10.53792 29138 ft 481 kts 132°
2026-05-07 18:09 48.79626 10.57629 29501 ft 483 kts 132°
2026-05-07 18:09 48.77423 10.61463 29874 ft 485 kts 133°
2026-05-07 18:09 48.75187 10.65349 30216 ft 488 kts 133°
2026-05-07 18:09 48.72950 10.69229 30478 ft 490 kts 133°
2026-05-07 18:10 48.70700 10.73126 30737 ft 493 kts 133°
2026-05-07 18:10 48.68442 10.77030 30998 ft 496 kts 133°
2026-05-07 18:10 48.66159 10.80973 31234 ft 498 kts 133°
2026-05-07 18:10 48.63869 10.84921 31472 ft 501 kts 133°
2026-05-07 18:11 48.61562 10.88893 31706 ft 503 kts 133°
2026-05-07 18:11 48.59252 10.92865 31933 ft 505 kts 133°
2026-05-07 18:11 48.56924 10.96862 32256 ft 506 kts 133°
2026-05-07 18:11 48.54603 11.00842 32571 ft 506 kts 133°
2026-05-07 18:12 48.52277 11.04823 32887 ft 506 kts 133°
2026-05-07 18:12 48.49949 11.08802 33200 ft 506 kts 133°
2026-05-07 18:12 48.47621 11.12774 33499 ft 506 kts 133°
2026-05-07 18:12 48.45287 11.16751 33805 ft 506 kts 134°
2026-05-07 18:13 48.42954 11.20720 34091 ft 507 kts 134°
2026-05-07 18:13 48.40619 11.24687 34341 ft 507 kts 134°
2026-05-07 18:13 48.37868 11.29353 34633 ft 506 kts 134°
2026-05-07 18:13 48.33182 11.37282 35118 ft 507 kts 134°
2026-05-07 18:14 48.28504 11.45172 35601 ft 507 kts 134°
2026-05-07 18:14 48.23806 11.53073 36071 ft 507 kts 134°
2026-05-07 18:14 48.19099 11.60964 36531 ft 507 kts 134°
2026-05-07 18:14 48.14451 11.68734 36983 ft 507 kts 134°
2026-05-07 18:15 48.09686 11.76677 37436 ft 507 kts 134°
2026-05-07 18:15 48.04959 11.84533 37875 ft 507 kts 135°
2026-05-07 18:15 48.00249 11.92336 38311 ft 506 kts 135°
2026-05-07 18:15 47.95524 12.00143 38697 ft 506 kts 135°
2026-05-07 18:16 47.90801 12.07923 38991 ft 506 kts 135°
2026-05-07 18:16 47.81320 12.23469 39033 ft 508 kts 135°
2026-05-07 18:17 47.71865 12.38884 39033 ft 507 kts 135°
2026-05-07 18:17 47.62336 12.54331 39039 ft 507 kts 136°
2026-05-07 18:18 47.57293 12.62310 39036 ft 507 kts 137°
2026-05-07 18:18 47.37872 12.92334 39048 ft 507 kts 137°
2026-05-07 18:19 47.18163 13.22571 39044 ft 509 kts 137°
2026-05-07 18:19 46.98646 13.52180 39032 ft 508 kts 138°
2026-05-07 18:20 46.78928 13.81753 39012 ft 507 kts 138°
2026-05-07 18:20 46.59160 14.11077 39013 ft 506 kts 139°
2026-05-07 18:21 46.39371 14.40106 38987 ft 506 kts 139°
2026-05-07 18:21 46.19822 14.69415 38989 ft 507 kts 137°
2026-05-07 18:22 46.00694 14.99133 38977 ft 505 kts 138°
2026-05-07 18:22 45.81472 15.28568 38966 ft 505 kts 138°
2026-05-07 18:23 45.62169 15.57804 38976 ft 504 kts 139°
2026-05-07 18:23 45.42850 15.86755 39000 ft 503 kts 139°
2026-05-07 18:24 45.23477 16.15480 39008 ft 503 kts 139°
2026-05-07 18:24 45.03993 16.44068 39015 ft 504 kts 139°
2026-05-07 18:25 44.84412 16.72502 39021 ft 506 kts 140°
2026-05-07 18:25 44.64708 17.00813 39029 ft 508 kts 140°
2026-05-07 18:26 44.44798 17.29129 39048 ft 509 kts 140°
2026-05-07 18:26 44.24822 17.57247 39054 ft 510 kts 140°
2026-05-07 18:27 44.04746 17.85216 39056 ft 513 kts 140°
2026-05-07 18:27 43.84613 18.12981 39050 ft 514 kts 140°
2026-05-07 18:28 43.64232 18.40804 39054 ft 516 kts 141°
2026-05-07 18:28 43.43613 18.68670 39056 ft 520 kts 141°
2026-05-07 18:29 43.22841 18.96470 39076 ft 522 kts 141°
2026-05-07 18:29 43.01689 19.24481 39094 ft 526 kts 141°
2026-05-07 18:30 42.80674 19.52037 39096 ft 529 kts 142°
2026-05-07 18:30 42.59301 19.79782 39102 ft 534 kts 143°
2026-05-07 18:31 42.37576 20.07698 39094 ft 542 kts 143°
2026-05-07 18:31 42.15527 20.35754 39099 ft 548 kts 144°
2026-05-07 18:32 41.93080 20.64030 39102 ft 556 kts 144°
2026-05-07 18:32 41.70301 20.92430 39094 ft 561 kts 144°
2026-05-07 18:33 41.47297 21.20803 39091 ft 564 kts 144°
2026-05-07 18:33 41.24275 21.48946 39092 ft 567 kts 144°
2026-05-07 18:34 41.00958 21.77148 39099 ft 568 kts 143°
2026-05-07 18:34 40.77470 22.05272 39110 ft 570 kts 143°
2026-05-07 18:35 40.53877 22.33242 39103 ft 572 kts 143°
2026-05-07 18:35 40.30182 22.61054 39105 ft 572 kts 143°
2026-05-07 18:36 40.06366 22.88742 39104 ft 572 kts 143°
2026-05-07 18:36 39.82545 23.16163 39105 ft 571 kts 143°
2026-05-07 18:37 39.58696 23.43353 39111 ft 571 kts 142°
2026-05-07 18:37 39.34741 23.70405 39094 ft 572 kts 142°
2026-05-07 18:38 39.10647 23.97356 39106 ft 574 kts 142°
2026-05-07 18:38 38.86429 24.24194 39111 ft 575 kts 142°
2026-05-07 18:39 38.62112 24.50891 39111 ft 576 kts 142°
2026-05-07 18:39 38.37644 24.77505 39119 ft 577 kts 142°
2026-05-07 18:40 38.13115 25.03941 39125 ft 579 kts 142°
2026-05-07 18:40 37.88438 25.30294 39136 ft 580 kts 141°
2026-05-07 18:41 37.63660 25.56517 39138 ft 581 kts 141°
2026-05-07 18:41 37.38818 25.82571 39147 ft 582 kts 141°
2026-05-07 18:42 37.13873 26.08502 39149 ft 582 kts 141°
2026-05-07 18:42 36.91084 26.36938 39150 ft 581 kts 122°
2026-05-07 18:43 36.72535 26.70032 39152 ft 582 kts 122°
2026-05-07 18:43 36.53780 27.02872 39154 ft 582 kts 122°
2026-05-07 18:44 36.38045 27.30193 39146 ft 583 kts 122°
2026-05-07 18:44 36.26573 27.49974 39141 ft 584 kts 122°
2026-05-07 18:45 36.07553 27.82519 39145 ft 582 kts 123°
2026-05-07 18:45 35.88542 28.14745 39152 ft 579 kts 123°
2026-05-07 18:46 35.69560 28.46624 39146 ft 574 kts 123°
2026-05-07 18:46 35.50693 28.78025 39158 ft 570 kts 124°
2026-05-07 18:47 35.31842 29.09116 39155 ft 565 kts 124°
2026-05-07 18:47 35.18159 29.31512 39154 ft 561 kts 124°
2026-05-07 18:48 35.08802 29.46745 39154 ft 560 kts 124°
2026-05-07 18:48 35.00969 29.59449 39154 ft 558 kts 124°
2026-05-07 18:49 34.91634 29.74526 39151 ft 556 kts 125°
2026-05-07 18:49 34.82316 29.89513 39152 ft 554 kts 125°
2026-05-07 18:50 34.73367 30.04712 39152 ft 550 kts 119°
2026-05-07 18:50 34.65392 30.20392 39150 ft 548 kts 118°
2026-05-07 18:51 34.57397 30.36086 39152 ft 546 kts 119°
2026-05-07 18:51 34.49400 30.51670 39154 ft 544 kts 119°
2026-05-07 18:52 34.41374 30.67246 39147 ft 543 kts 120°
2026-05-07 18:52 34.33376 30.82701 39141 ft 541 kts 120°
2026-05-07 18:53 34.25371 30.98103 39143 ft 540 kts 120°
2026-05-07 18:53 34.17374 31.13423 39141 ft 538 kts 120°
2026-05-07 18:54 34.09381 31.28670 39145 ft 536 kts 120°
2026-05-07 18:54 34.01416 31.43799 39145 ft 534 kts 120°
2026-05-07 18:55 33.93446 31.58875 39143 ft 532 kts 120°
2026-05-07 18:55 33.85490 31.73864 39135 ft 530 kts 121°
2026-05-07 18:56 33.77539 31.88780 39133 ft 529 kts 121°
2026-05-07 18:56 33.69601 32.03609 39130 ft 526 kts 121°
2026-05-07 18:57 33.61685 32.18340 39131 ft 523 kts 121°
2026-05-07 18:57 33.57383 32.26318 38936 ft 522 kts 121°
2026-05-07 18:57 33.55413 32.29967 38686 ft 521 kts 121°
2026-05-07 18:58 33.53440 32.33617 38406 ft 521 kts 121°
2026-05-07 18:58 33.51467 32.37263 38127 ft 521 kts 121°
2026-05-07 18:58 33.49495 32.40905 37858 ft 521 kts 121°
2026-05-07 18:58 33.47518 32.44551 37578 ft 521 kts 121°
2026-05-07 18:59 33.45546 32.48185 37315 ft 522 kts 121°
2026-05-07 18:59 33.43566 32.51830 37043 ft 522 kts 121°
2026-05-07 18:59 33.41585 32.55472 36779 ft 522 kts 121°
2026-05-07 18:59 33.39607 32.59107 36523 ft 522 kts 121°
2026-05-07 19:00 33.37621 32.62752 36262 ft 523 kts 121°
2026-05-07 19:00 33.35630 32.66401 36016 ft 523 kts 121°
2026-05-07 19:00 33.33643 32.70040 35762 ft 524 kts 121°
2026-05-07 19:00 33.31653 32.73683 35521 ft 524 kts 121°
2026-05-07 19:01 33.29670 32.77306 35309 ft 515 kts 121°
2026-05-07 19:01 33.27724 32.80853 35072 ft 506 kts 121°
2026-05-07 19:01 33.25799 32.84364 34843 ft 505 kts 120°
2026-05-07 19:01 33.23873 32.87875 34496 ft 505 kts 120°
2026-05-07 19:02 33.21948 32.91381 34014 ft 504 kts 120°
2026-05-07 19:02 33.20034 32.94867 33474 ft 501 kts 120°
2026-05-07 19:02 33.18153 32.98288 32951 ft 498 kts 120°
2026-05-07 19:02 33.16236 33.01773 32421 ft 495 kts 120°
2026-05-07 19:03 33.14350 33.05196 31926 ft 492 kts 120°
2026-05-07 19:03 33.12475 33.08596 31415 ft 489 kts 120°
2026-05-07 19:03 33.10611 33.11973 30924 ft 486 kts 121°
2026-05-07 19:03 33.08756 33.15330 30427 ft 483 kts 121°
2026-05-07 19:04 33.06910 33.18669 29933 ft 480 kts 121°
2026-05-07 19:04 33.05074 33.21985 29365 ft 478 kts 121°
2026-05-07 19:04 33.03253 33.25273 28819 ft 475 kts 121°
2026-05-07 19:04 33.01459 33.28507 28291 ft 472 kts 121°
2026-05-07 19:05 32.99628 33.31805 27759 ft 469 kts 121°
2026-05-07 19:05 32.97836 33.35032 27248 ft 466 kts 122°
2026-05-07 19:05 32.96051 33.38243 26743 ft 464 kts 122°
2026-05-07 19:05 32.94297 33.41394 26259 ft 461 kts 122°
2026-05-07 19:06 32.92509 33.44604 25759 ft 458 kts 122°
2026-05-07 19:06 32.89048 33.50807 24797 ft 438 kts 122°
2026-05-07 19:06 32.87395 33.53767 24341 ft 433 kts 122°
2026-05-07 19:07 32.85730 33.56747 23882 ft 431 kts 123°
2026-05-07 19:07 32.84077 33.59702 23378 ft 428 kts 123°
2026-05-07 19:07 32.82305 33.62516 22835 ft 425 kts 131°
2026-05-07 19:07 32.80324 33.65109 22026 ft 422 kts 133°
2026-05-07 19:08 32.78285 33.67670 21047 ft 432 kts 134°
2026-05-07 19:08 32.76185 33.70279 20060 ft 441 kts 134°
2026-05-07 19:08 32.74045 33.72926 19200 ft 447 kts 134°
2026-05-07 19:08 32.71891 33.75584 18558 ft 446 kts 134°
2026-05-07 19:09 32.69749 33.78225 17921 ft 442 kts 134°
2026-05-07 19:09 32.67615 33.80853 17103 ft 442 kts 134°
2026-05-07 19:09 32.65495 33.83462 16415 ft 428 kts 134°
2026-05-07 19:09 32.63499 33.85917 15897 ft 401 kts 134°
2026-05-07 19:10 32.61622 33.88223 15430 ft 377 kts 134°
2026-05-07 19:10 32.59853 33.90395 15004 ft 356 kts 135°
2026-05-07 19:10 32.58181 33.92447 14605 ft 338 kts 135°
2026-05-07 19:10 32.56575 33.94416 14017 ft 328 kts 135°
2026-05-07 19:11 32.55005 33.96354 13271 ft 324 kts 135°
2026-05-07 19:11 32.53450 33.98299 12511 ft 330 kts 134°
2026-05-07 19:11 32.51850 34.00300 11816 ft 338 kts 135°
2026-05-07 19:11 32.50249 34.02302 11606 ft 329 kts 135°
2026-05-07 19:12 32.48716 34.04219 11464 ft 309 kts 135°
2026-05-07 19:12 32.47294 34.05997 11323 ft 286 kts 135°
2026-05-07 19:12 32.45977 34.07642 11175 ft 265 kts 135°
2026-05-07 19:12 32.44708 34.09224 11064 ft 265 kts 135°
2026-05-07 19:13 32.43439 34.10808 10873 ft 265 kts 135°
2026-05-07 19:13 32.42297 34.12486 10645 ft 265 kts 127°
2026-05-07 19:13 32.41245 34.14297 10408 ft 264 kts 126°
2026-05-07 19:13 32.40238 34.16072 10183 ft 262 kts 126°
2026-05-07 19:14 32.39221 34.17860 9930 ft 262 kts 126°
2026-05-07 19:14 32.38209 34.19636 9660 ft 260 kts 126°
2026-05-07 19:14 32.37199 34.21403 9435 ft 259 kts 126°
2026-05-07 19:14 32.36193 34.23159 9214 ft 257 kts 125°
2026-05-07 19:15 32.35194 34.24904 9005 ft 256 kts 125°
2026-05-07 19:15 32.34197 34.26644 8790 ft 254 kts 125°
2026-05-07 19:15 32.33207 34.28371 8575 ft 253 kts 124°
2026-05-07 19:15 32.32223 34.30092 8368 ft 252 kts 125°
2026-05-07 19:16 32.31237 34.31804 8152 ft 251 kts 125°
2026-05-07 19:16 32.30257 34.33503 7944 ft 249 kts 124°
2026-05-07 19:16 32.29285 34.35188 7722 ft 247 kts 124°
2026-05-07 19:16 32.28321 34.36861 7530 ft 246 kts 124°
2026-05-07 19:17 32.27358 34.38531 7326 ft 245 kts 124°
2026-05-07 19:17 32.26409 34.40174 7113 ft 240 kts 124°
2026-05-07 19:17 32.25628 34.41528 7018 ft 232 kts 124°
2026-05-07 19:18 32.24728 34.43090 7023 ft 229 kts 124°
2026-05-07 19:18 32.23829 34.44645 6965 ft 227 kts 124°
2026-05-07 19:18 32.22939 34.46187 6605 ft 229 kts 124°
2026-05-07 19:18 32.22037 34.47745 6237 ft 230 kts 124°
2026-05-07 19:19 32.21137 34.49292 5983 ft 227 kts 124°
2026-05-07 19:19 32.20245 34.50825 5785 ft 226 kts 124°
2026-05-07 19:19 32.19359 34.52350 5609 ft 225 kts 123°
2026-05-07 19:19 32.18475 34.53871 5391 ft 224 kts 123°
2026-05-07 19:20 32.17595 34.55383 5225 ft 223 kts 123°
2026-05-07 19:20 32.16719 34.56890 5037 ft 222 kts 123°
2026-05-07 19:20 32.15862 34.58409 4992 ft 222 kts 120°
2026-05-07 19:20 32.15078 34.59960 4714 ft 219 kts 118°
2026-05-07 19:21 32.14326 34.61479 4470 ft 208 kts 118°
2026-05-07 19:21 32.13631 34.62931 4054 ft 204 kts 114°
2026-05-07 19:21 32.12946 34.64405 3670 ft 198 kts 117°
2026-05-07 19:21 32.12244 34.65762 3548 ft 196 kts 117°
2026-05-07 19:22 32.11521 34.67150 3454 ft 196 kts 117°
2026-05-07 19:22 32.10820 34.68502 3369 ft 195 kts 117°
2026-05-07 19:22 32.10133 34.69837 3268 ft 182 kts 117°
2026-05-07 19:22 32.09507 34.71049 3122 ft 164 kts 116°
2026-05-07 19:23 32.08931 34.72178 2938 ft 160 kts 116°
2026-05-07 19:23 32.08359 34.73287 2730 ft 155 kts 116°
2026-05-07 19:23 32.07808 34.74350 2480 ft 150 kts 116°
2026-05-07 19:23 32.07266 34.75397 2286 ft 150 kts 116°
2026-05-07 19:24 32.06724 34.76447 2156 ft 150 kts 116°
2026-05-07 19:24 32.06184 34.77496 2021 ft 150 kts 116°
2026-05-07 19:24 32.05643 34.78543 1853 ft 149 kts 116°
2026-05-07 19:24 32.05100 34.79586 1689 ft 149 kts 115°
2026-05-07 19:25 32.04559 34.80633 1484 ft 149 kts 116°
2026-05-07 19:25 32.04021 34.81674 1277 ft 148 kts 116°
2026-05-07 19:25 32.03486 34.82707 1062 ft 147 kts 117°
2026-05-07 19:25 32.02955 34.83740 829 ft 148 kts 118°
2026-05-07 19:26 32.02422 34.84766 582 ft 146 kts 119°
2026-05-07 19:26 32.01884 34.85781 384 ft 146 kts 121°
2026-05-07 19:26 32.01345 34.86790 202 ft 145 kts 119°
2026-05-07 19:26 32.00838 34.87782 123 ft 133 kts 123°
2026-05-07 19:27 32.00392 34.88658 124 ft 108 kts 122°
2026-05-07 19:27 32.00162 34.89089 120 ft 31 kts 132°
2026-05-07 19:27 32.00013 34.89105 121 ft 18 kts 214°
2026-05-07 19:27 31.99958 34.89024 122 ft 10 kts 253°
2026-05-07 19:28 31.99957 34.88944 124 ft 9 kts 286°
2026-05-07 19:28 31.99984 34.88863 124 ft 12 kts 297°
2026-05-07 19:28 32.00038 34.88762 122 ft 17 kts 302°
2026-05-07 19:28 32.00104 34.88634 122 ft 20 kts 301°
2026-05-07 19:29 32.00183 34.88479 122 ft 24 kts 301°
2026-05-07 19:29 32.00243 34.88364 122 ft 0 kts 301°
2026-05-07 19:29 32.00277 34.88300 123 ft 14 kts 302°
2026-05-07 19:29 32.00333 34.88193 124 ft 16 kts 302°
2026-05-07 19:30 32.00396 34.88072 122 ft 18 kts 302°
2026-05-07 19:30 32.00467 34.87938 121 ft 20 kts 301°
2026-05-07 19:30 32.00529 34.87814 122 ft 15 kts 301°
2026-05-07 19:30 32.00585 34.87705 122 ft 16 kts 301°
2026-05-07 19:31 32.00618 34.87644 122 ft 0 kts 301°
2026-05-07 19:31 32.00633 34.87614 122 ft 10 kts 301°
2026-05-07 19:31 32.00671 34.87535 123 ft 12 kts 288°
2026-05-07 19:32 32.00648 34.87459 122 ft 7 kts 230°
2026-05-07 19:32 32.00630 34.87438 123 ft 0 kts 225°